Location: St. Andrews
(45.0670°N, 67.0330°W)
Time: 08:55:55
(UTC-03:00)

Amateur Radio Satellites - All Passes

Search period start: 21 August 2017 08:25
Search period end: 22 August 2017 08:25
Location: St. Andrews, 45.0670°N, 67.0330°W

Satellite Date Start Highest point End Downlink Frequencies (MHz)
Time Altitude Azimuth
XW-2F 21 Aug 08:30:09 08:33:29 29° 291° (WNW) 08:36:49 145.980 - 146.000
DOVE 4 21 Aug 08:46:02 08:47:16 11° 303° (WNW) 08:48:29 437.250
NO-84 21 Aug 08:48:58 08:51:59 85° 218° (SW) 08:55:13 435.350 FM
XW-2A 21 Aug 08:51:27 08:54:43 42° 99° (E) 08:57:57 145.665 - 145.685
AAUSAT CUBESAT 2 21 Aug 08:53:14 08:56:47 26° 94° (E) 09:00:18 437.432
KAITUO 1B 21 Aug 08:55:23 08:58:08 19° 294° (WNW) 09:00:54 145.475/437.950
CUTE 1.7 + AOD 2 21 Aug 08:56:10 09:00:30 84° 285° (WNW) 09:04:47 437.475
HO-68 21 Aug 08:59:52 09:07:04 80° 106° (ESE) 09:14:14 435.675
UWE-3 21 Aug 09:02:05 09:05:59 34° 97° (E) 09:09:56 435.000/436.395/437.385
STRAND 1 21 Aug 09:02:48 09:07:04 27° 266° (W) 09:11:22 437.568
PCSat 21 Aug 09:04:35 09:09:51 53° 245° (WSW) 09:15:05 145.827
SO-50 21 Aug 09:06:35 09:10:58 47° 241° (WSW) 09:15:23 436.795
CUBEBUG 2 21 Aug 09:09:44 09:13:56 71° 101° (E) 09:18:13 437.445
Oscar 11 21 Aug 09:11:54 09:14:46 17° 91° (E) 09:17:36 .
Tancredo 1 21 Aug 09:22:39 09:24:35 16° 136° (SE) 09:26:32 437.200
O/OREOS (USA 219) 21 Aug 09:32:10 09:35:23 20° 101° (ESE) 09:38:37 437.305
ZACube-1 21 Aug 09:41:03 09:45:14 50° 99° (E) 09:49:28 437.345
UNISAT 6 21 Aug 09:43:29 09:47:10 28° 67° (ENE) 09:50:48 437.425
SEEDS 21 Aug 09:43:44 09:47:46 41° 289° (WNW) 09:51:45 437.485
PRISM 21 Aug 09:44:12 09:47:17 21° 64° (ENE) 09:50:24 437.425
CUTE-I 21 Aug 09:48:36 09:51:15 14° 304° (NW) 09:53:55 437.470
FO-29 21 Aug 09:52:15 09:59:51 84° 74° (ENE) 10:06:42 435.910
DELFI C3 21 Aug 09:57:58 09:59:24 12° 89° (E) 10:00:48 145.870
AO-73 21 Aug 10:02:01 10:06:18 76° 102° (ESE) 10:10:41 145.935
RS-15 21 Aug 10:03:21 10:10:45 19° 96° (E) 10:18:09 29.354- 29.394
TIGRISAT 21 Aug 10:17:50 10:22:04 57° 73° (ENE) 10:26:15 435.000
XW-2A 21 Aug 10:25:28 10:27:05 13° 295° (WNW) 10:28:40 145.665 - 145.685
AAUSAT CUBESAT 2 21 Aug 10:28:34 10:32:13 29° 292° (WNW) 10:35:50 437.432
EO-88 21 Aug 10:33:37 10:36:02 17° 92° (E) 10:38:26 145.990 - 145.960
ISS 21 Aug 10:35:16 10:37:59 24° 138° (SE) 10:40:43 437.550
M-CUBED/EXP-1 PRIME 21 Aug 10:37:15 10:40:36 20° 57° (ENE) 10:44:01 437.505
UWE-3 21 Aug 10:38:54 10:42:17 24° 293° (WNW) 10:45:44 435.000/436.395/437.385
nSIGHT-1 21 Aug 10:43:00 10:45:54 30° 140° (SE) 10:48:48 .
Oscar 11 21 Aug 10:46:57 10:51:10 49° 288° (WNW) 10:55:22 .
CUBEBUG 2 21 Aug 10:48:14 10:50:02 13° 299° (WNW) 10:51:51 437.445
HO-68 21 Aug 10:48:38 10:54:03 24° 305° (NW) 10:59:28 435.675
Tancredo 1 21 Aug 10:56:35 10:59:28 66° 332° (NNW) 11:02:24 437.200
O/OREOS (USA 219) 21 Aug 11:10:10 11:14:27 45° 299° (WNW) 11:18:47 437.305
Max Valier Satellite 21 Aug 11:12:56 11:16:37 64° 101° (E) 11:20:18 145.860
ZACube-1 21 Aug 11:18:20 11:21:09 18° 296° (WNW) 11:24:01 437.345
PRISM 21 Aug 11:18:24 11:22:18 39° 261° (W) 11:26:15 437.425
UNISAT 6 21 Aug 11:20:02 11:23:49 29° 264° (W) 11:27:34 437.425
DELFI C3 21 Aug 11:30:37 11:34:33 61° 287° (WNW) 11:38:27 145.870
AIST 2D 21 Aug 11:35:07 11:38:27 47° 74° (ENE) 11:41:51 435.315
FO-29 21 Aug 11:40:08 11:45:25 20° 270° (W) 11:50:25 435.910
AO-73 21 Aug 11:40:12 11:41:59 12° 299° (WNW) 11:43:45 145.935
NANOSAT C BR1 21 Aug 11:46:22 11:49:56 28° 68° (ENE) 11:53:31 145.865
POLYITAN 1 21 Aug 11:51:09 11:54:57 34° 69° (ENE) 11:58:44 437.675
ESTCUBE 1 21 Aug 11:51:53 11:54:26 15° 90° (E) 11:56:58 437.505/2401.250
TIGRISAT 21 Aug 11:56:49 11:59:07 14° 270° (W) 12:01:24 435.000
LO-87 21 Aug 12:01:55 12:04:50 24° 95° (E) 12:07:42 145.935 - 145.965
QB50P2 21 Aug 12:05:57 12:10:03 54° 72° (ENE) 12:14:10 145.880/145.840
EO-88 21 Aug 12:06:26 12:09:50 35° 289° (WNW) 12:13:12 145.990 - 145.960
EO-79 21 Aug 12:06:33 12:10:36 50° 72° (ENE) 12:14:41 145.935-145.965
RS-15 21 Aug 12:08:48 12:20:56 72° 118° (ESE) 12:33:10 29.354- 29.394
M-CUBED/EXP-1 PRIME 21 Aug 12:10:08 12:14:35 56° 255° (WSW) 12:19:12 437.505
ISS 21 Aug 12:11:03 12:14:17 56° 335° (NNW) 12:17:32 437.550
nSIGHT-1 21 Aug 12:19:00 12:22:11 48° 338° (NNW) 12:25:22 .
Tancredo 1 21 Aug 12:32:37 12:35:02 23° 352° (N) 12:37:28 437.200
BUGSAT 1 21 Aug 12:35:29 12:38:46 24° 66° (ENE) 12:42:01 437.445
DUCHIFAT 1 21 Aug 12:35:57 12:40:07 84° 78° (ENE) 12:44:19 145.980
Oscar 19 21 Aug 12:39:42 12:42:59 17° 59° (ENE) 12:46:16 437.125/150
Max Valier Satellite 21 Aug 12:48:54 12:49:57 11° 298° (WNW) 12:50:58 145.860
BEESAT 3 21 Aug 12:52:37 12:54:54 14° 35° (NE) 12:57:09 437.485
AO-85 21 Aug 12:56:43 12:58:45 13° 33° (NNE) 13:00:49 145.980
AO-7 21 Aug 13:10:19 13:13:22 12° 37° (NE) 13:16:25 .
AIST 2D 21 Aug 13:10:50 13:11:57 11° 270° (W) 13:13:04 435.315
NANOSAT C BR1 21 Aug 13:21:59 13:25:35 28° 264° (W) 13:29:13 145.865
ESTCUBE 1 21 Aug 13:27:08 13:31:39 62° 287° (WNW) 13:36:07 437.505/2401.250
POLYITAN 1 21 Aug 13:27:29 13:30:48 22° 266° (W) 13:34:08 437.675
VELOX 1 21 Aug 13:32:09 13:36:07 32° 96° (E) 13:40:03 145.980
LO-87 21 Aug 13:35:20 13:38:10 23° 292° (WNW) 13:40:59 145.935 - 145.965
SPROUT 21 Aug 13:36:23 13:40:28 44° 99° (E) 13:44:31 437.525
QB50P2 21 Aug 13:43:49 13:46:10 14° 269° (W) 13:48:31 145.880/145.840
EO-79 21 Aug 13:44:06 13:46:40 16° 269° (W) 13:49:13 145.935-145.965
ISS 21 Aug 13:48:25 13:51:14 25° 355° (N) 13:54:01 437.550
Gurwin Techsat 1B 21 Aug 13:54:18 13:59:24 49° 69° (ENE) 14:04:32 435.225
nSIGHT-1 21 Aug 13:56:18 13:59:04 25° 357° (N) 14:01:50 .
Tancredo 1 21 Aug 14:08:18 14:10:50 26° 12° (NNE) 14:13:21 437.200
BUGSAT 1 21 Aug 14:10:19 14:13:59 31° 263° (W) 14:17:37 437.445
Oscar 19 21 Aug 14:16:34 14:21:42 73° 257° (WSW) 14:26:54 437.125/150
50 SAT 21 Aug 14:18:18 14:21:28 35° 98° (E) 14:24:34 437.505
RS-15 21 Aug 14:22:37 14:34:22 47° 324° (NW) 14:46:06 29.354- 29.394
BEESAT 3 21 Aug 14:29:03 14:33:06 86° 56° (NE) 14:37:02 437.485
AO-85 21 Aug 14:35:38 14:39:53 67° 54° (NE) 14:44:26 145.980
BEESAT 2 21 Aug 14:43:58 14:47:53 44° 49° (NE) 14:51:45 435.950
UKube-1 21 Aug 14:45:38 14:49:38 36° 98° (E) 14:53:36 .
AO-7 21 Aug 14:56:14 15:04:01 45° 60° (ENE) 15:11:48 .
DX 1 21 Aug 15:08:07 15:12:30 86° 288° (WNW) 15:16:51 434.975-435.025
VELOX 1 21 Aug 15:08:43 15:12:28 27° 294° (WNW) 15:16:10 145.980
SPROUT 21 Aug 15:13:03 15:16:03 19° 296° (WNW) 15:19:02 437.525
ISS 21 Aug 15:25:17 15:28:19 33° 16° (NNE) 15:31:19 437.550
BEESAT 21 Aug 15:28:02 15:30:07 13° 89° (E) 15:32:13 436.000
nSIGHT-1 21 Aug 15:32:59 15:36:02 36° 17° (NNE) 15:39:04 .
Gurwin Techsat 1B 21 Aug 15:35:22 15:39:36 24° 267° (W) 15:43:52 435.225
ITAMSAT 1 21 Aug 15:37:24 15:42:24 50° 70° (ENE) 15:47:25 435.822/435.867
Tancredo 1 21 Aug 15:43:21 15:46:16 81° 210° (SSW) 15:49:09 437.200
50 SAT 21 Aug 15:51:53 15:53:50 15° 295° (WNW) 15:55:45 437.505
ITUPSAT 1 21 Aug 16:01:14 16:05:16 26° 95° (E) 16:09:17 437.325
YUBILEINY 21 Aug 16:15:08 16:23:28 50° 89° (E) 16:31:47 435.215
AO-85 21 Aug 16:17:15 16:19:53 16° 248° (WSW) 16:22:37 145.980
UKube-1 21 Aug 16:22:02 16:25:28 24° 295° (WNW) 16:28:54 .
BEESAT 2 21 Aug 16:22:19 16:25:21 20° 247° (WSW) 16:28:21 435.950
DOVE 4 21 Aug 16:36:40 16:39:58 17° 61° (ENE) 16:43:14 437.250
RS-15 21 Aug 16:40:34 16:50:56 30° 357° (N) 17:01:06 29.354- 29.394
MOZHAYETS 4 21 Aug 16:42:10 16:46:45 60° 101° (E) 16:51:19
DX 1 21 Aug 16:47:06 16:47:57 10° 303° (WNW) 16:48:48 434.975-435.025
AO-7 21 Aug 16:48:44 16:56:43 48° 259° (W) 17:04:45 .
ISS 21 Aug 17:01:43 17:04:57 59° 214° (SW) 17:08:10 437.550
BEESAT 21 Aug 17:03:41 17:08:28 77° 286° (WNW) 17:13:13 436.000
CUBESAT XI-V 21 Aug 17:04:13 17:07:56 23° 93° (E) 17:11:38 437.345
nSIGHT-1 21 Aug 17:09:21 17:12:30 48° 216° (SW) 17:15:37 .
ITAMSAT 1 21 Aug 17:18:05 17:22:08 23° 267° (W) 17:26:11 435.822/435.867
Tancredo 1 21 Aug 17:20:37 17:20:58 10° 228° (SW) 17:21:19 437.200
XW-2C 21 Aug 17:28:57 17:30:31 12° 62° (ENE) 17:32:06 145.795 - 145.815
ITUPSAT 1 21 Aug 17:38:46 17:43:10 37° 292° (WNW) 17:47:32 437.325
XW-2F 21 Aug 17:39:49 17:42:02 15° 64° (ENE) 17:44:15 145.980 - 146.000
HO-68 21 Aug 17:46:27 17:50:36 17° 49° (NE) 17:54:45 435.675
CUTE-I 21 Aug 17:51:39 17:56:08 28° 64° (ENE) 18:00:37 437.470
KAITUO 1B 21 Aug 18:03:01 18:05:54 22° 67° (ENE) 18:08:48 145.475/437.950
DOVE 4 21 Aug 18:11:48 18:17:05 75° 259° (WSW) 18:22:15 437.250
YUBILEINY 21 Aug 18:12:20 18:20:27 40° 290° (WNW) 18:28:35 435.215
MOZHAYETS 4 21 Aug 18:20:28 18:23:27 17° 298° (WNW) 18:26:25
KKS-1 21 Aug 18:25:17 18:29:42 63° 101° (E) 18:34:05 437.445
LilacSat-2 21 Aug 18:27:00 18:30:42 57° 74° (ENE) 18:34:28 437.200
XW-2D 21 Aug 18:30:18 18:34:00 61° 74° (ENE) 18:37:45 145.860 - 145.880
NUDT-PHONESAT 21 Aug 18:33:54 18:37:25 46° 73° (ENE) 18:40:59 437.300
CUBESAT XI-V 21 Aug 18:41:01 18:45:28 42° 290° (WNW) 18:49:54 437.345
XW-2B 21 Aug 18:41:20 18:45:04 80° 77° (ENE) 18:48:52 145.730 - 145.750
BEESAT 21 Aug 18:44:16 18:45:24 11° 304° (NW) 18:46:32 436.000
RS-15 21 Aug 18:56:17 19:07:44 42° 31° (NNE) 19:18:40 29.354- 29.394
XW-2C 21 Aug 19:00:32 19:04:14 58° 260° (W) 19:07:59 145.795 - 145.815
STARS 21 Aug 19:01:48 19:06:09 64° 102° (ESE) 19:10:28 437.465
SEEDS 21 Aug 19:02:36 19:05:27 18° 64° (ENE) 19:08:20 437.485
XW-2F 21 Aug 19:12:13 19:15:47 44° 261° (W) 19:19:25 145.980 - 146.000
XW-2A 21 Aug 19:25:00 19:27:29 20° 68° (ENE) 19:29:58 145.665 - 145.685
HO-68 21 Aug 19:30:02 19:37:07 72° 70° (ENE) 19:44:15 435.675
CUTE-I 21 Aug 19:30:51 19:35:57 44° 261° (W) 19:41:05 437.470
STRAND 1 21 Aug 19:33:37 19:35:14 11° 87° (E) 19:36:51 437.568
KAITUO 1B 21 Aug 19:36:30 19:39:45 28° 264° (W) 19:43:02 145.475/437.950
O/OREOS (USA 219) 21 Aug 19:38:38 19:43:07 55° 63° (ENE) 19:47:35 437.305
AAUSAT CUBESAT 2 21 Aug 19:45:14 19:48:32 23° 66° (ENE) 19:51:50 437.432
CUTE 1.7 + AOD 2 21 Aug 19:50:12 19:54:27 85° 73° (ENE) 19:58:44 437.475
UWE-3 21 Aug 20:00:59 20:04:46 34° 70° (ENE) 20:08:32 435.000/436.395/437.385
KKS-1 21 Aug 20:03:09 20:05:45 16° 300° (WNW) 20:08:21 437.445
LilacSat-2 21 Aug 20:04:11 20:05:22 11° 271° (W) 20:06:32 437.200
XW-2D 21 Aug 20:07:53 20:08:35 10° 271° (W) 20:09:18 145.860 - 145.880
Oscar 11 21 Aug 20:08:49 20:11:39 17° 63° (ENE) 20:14:30 .
CUBEBUG 2 21 Aug 20:09:28 20:13:43 73° 75° (ENE) 20:17:54 437.445
NUDT-PHONESAT 21 Aug 20:09:52 20:11:34 13° 270° (W) 20:13:19 437.300
SEEDS 21 Aug 20:36:44 20:40:47 47° 261° (W) 20:44:54 437.485
ZACube-1 21 Aug 20:38:38 20:42:38 48° 72° (ENE) 20:46:37 437.345
STARS 21 Aug 20:39:32 20:41:59 15° 299° (WNW) 20:44:26 437.465
XW-2A 21 Aug 20:57:19 21:00:05 24° 264° (W) 21:02:53 145.665 - 145.685
AO-73 21 Aug 20:59:11 21:03:17 72° 76° (ENE) 21:07:26 145.935
RS-15 21 Aug 21:09:24 21:21:31 80° 239° (WSW) 21:32:56 29.354- 29.394
STRAND 1 21 Aug 21:10:00 21:15:08 89° 110° (ESE) 21:20:15 437.568
EO-88 21 Aug 21:14:56 21:15:47 11° 62° (ENE) 21:16:38 145.990 - 145.960
O/OREOS (USA 219) 21 Aug 21:19:10 21:22:04 17° 260° (W) 21:24:58 437.305
HO-68 21 Aug 21:19:56 21:25:27 24° 268° (W) 21:31:01 435.675
AAUSAT CUBESAT 2 21 Aug 21:20:00 21:23:48 34° 263° (W) 21:27:38 437.432
UWE-3 21 Aug 21:38:04 21:41:19 22° 266° (W) 21:44:34 435.000/436.395/437.385
Oscar 11 21 Aug 21:43:13 21:47:24 51° 260° (W) 21:51:38 .
CUBEBUG 2 21 Aug 21:49:55 21:50:49 11° 272° (W) 21:51:42 437.445
Max Valier Satellite 21 Aug 21:53:31 21:56:53 36° 71° (ENE) 22:00:16 145.860
PCSat 21 Aug 22:07:31 22:10:23 15° 104° (ESE) 22:13:16 145.827
ZACube-1 21 Aug 22:16:40 22:19:11 16° 269° (W) 22:21:43 437.345
DELFI C3 21 Aug 22:17:09 22:21:10 86° 258° (WSW) 22:25:12 145.870
AO-73 21 Aug 22:39:25 22:40:02 10° 272° (W) 22:40:39 145.935
LO-87 21 Aug 22:40:38 22:42:40 15° 65° (ENE) 22:44:42 145.935 - 145.965
EO-88 21 Aug 22:45:19 22:48:55 64° 258° (WSW) 22:52:34 145.990 - 145.960
FO-29 21 Aug 22:45:40 22:51:13 58° 100° (E) 22:56:21 435.910
STRAND 1 21 Aug 22:51:00 22:53:35 14° 303° (WNW) 22:56:10 437.568
ESTCUBE 1 21 Aug 22:53:12 22:56:16 18° 62° (ENE) 22:59:21 437.505/2401.250
PRISM 21 Aug 22:57:51 23:01:10 23° 94° (E) 23:04:27 437.425
UNISAT 6 21 Aug 23:08:37 23:12:48 46° 99° (E) 23:17:01 437.425
SO-50 21 Aug 23:22:37 23:26:40 33° 116° (ESE) 23:30:42 436.795
RS-15 21 Aug 23:23:55 23:31:53 22° 262° (W) 23:39:38 29.354- 29.394
Max Valier Satellite 21 Aug 23:28:33 23:30:52 16° 268° (W) 23:33:12 145.860
TIGRISAT 21 Aug 23:43:22 23:47:42 82° 283° (WNW) 23:52:04 435.000
PCSat 21 Aug 23:47:35 23:53:01 86° 300° (WNW) 23:58:29 145.827
LO-87 22 Aug 00:12:21 00:15:45 41° 261° (W) 00:19:11 145.935 - 145.965
DUCHIFAT 1 22 Aug 00:20:03 00:21:19 11° 89° (E) 00:22:35 145.980
ESTCUBE 1 22 Aug 00:28:15 00:32:40 54° 260° (W) 00:37:07 437.505/2401.250
VELOX 1 22 Aug 00:30:56 00:35:02 37° 69° (ENE) 00:39:07 145.980
AIST 2D 22 Aug 00:31:00 00:34:26 44° 99° (E) 00:37:52 435.315
SPROUT 22 Aug 00:31:16 00:35:17 43° 71° (ENE) 00:39:20 437.525
FO-29 22 Aug 00:31:41 00:35:48 21° 302° (WNW) 00:39:43 435.910
DX 1 22 Aug 00:31:59 00:33:54 13° 59° (ENE) 00:35:49 434.975-435.025
PRISM 22 Aug 00:32:47 00:36:30 32° 292° (WNW) 00:40:10 437.425
UNISAT 6 22 Aug 00:46:10 00:49:12 19° 296° (WNW) 00:52:16 437.425
50 SAT 22 Aug 00:51:32 00:53:59 19° 67° (ENE) 00:56:27 437.505
SO-50 22 Aug 01:02:56 01:07:05 35° 315° (NW) 01:11:14 436.795
NANOSAT C BR1 22 Aug 01:03:28 01:07:23 37° 97° (E) 01:11:17 145.865
POLYITAN 1 22 Aug 01:09:00 01:13:06 48° 100° (E) 01:17:11 437.675
M-CUBED/EXP-1 PRIME 22 Aug 01:21:20 01:25:45 82° 107° (ESE) 01:29:49 437.505
QB50P2 22 Aug 01:24:09 01:28:23 79° 104° (ESE) 01:32:36 145.880/145.840
EO-79 22 Aug 01:24:28 01:28:41 72° 102° (ESE) 01:32:53 145.935-145.965
PCSat 22 Aug 01:33:23 01:37:13 19° 323° (NW) 01:41:05 145.827
UKube-1 22 Aug 01:41:39 01:45:41 39° 69° (ENE) 01:49:44 .
NO-84 22 Aug 01:44:24 01:47:03 31° 136° (SE) 01:49:37 435.350 FM
BUGSAT 1 22 Aug 01:49:37 01:53:08 29° 96° (E) 01:56:39 437.445
DUCHIFAT 1 22 Aug 01:53:17 01:57:27 70° 286° (WNW) 02:01:37 145.980
DX 1 22 Aug 02:05:05 02:09:28 79° 257° (WSW) 02:13:52 434.975-435.025
AIST 2D 22 Aug 02:05:27 02:07:15 14° 296° (WNW) 02:09:04 435.315
VELOX 1 22 Aug 02:07:57 02:11:33 24° 266° (W) 02:15:11 145.980
SPROUT 22 Aug 02:08:24 02:11:23 18° 268° (W) 02:14:23 437.525
Gurwin Techsat 1B 22 Aug 02:09:36 02:12:52 16° 90° (E) 02:16:06 435.225
YUBILEINY 22 Aug 02:22:51 02:30:02 28° 64° (ENE) 02:37:10 435.215
50 SAT 22 Aug 02:23:30 02:26:28 27° 263° (W) 02:29:28 437.505
Oscar 19 22 Aug 02:26:16 02:30:59 34° 96° (E) 02:35:40 437.125/150
BEESAT 22 Aug 02:35:45 02:39:10 20° 62° (ENE) 02:42:36 436.000
NANOSAT C BR1 22 Aug 02:39:41 02:42:52 21° 295° (WNW) 02:46:04 145.865
POLYITAN 1 22 Aug 02:45:44 02:48:32 18° 297° (WNW) 02:51:20 437.675
M-CUBED/EXP-1 PRIME 22 Aug 02:57:23 02:59:26 13° 308° (NW) 03:01:26 437.505
QB50P2 22 Aug 03:02:03 03:03:33 12° 300° (WNW) 03:05:03 145.880/145.840
EO-79 22 Aug 03:02:04 03:03:53 13° 300° (WNW) 03:05:42 145.935-145.965
ITUPSAT 1 22 Aug 03:09:39 03:14:02 39° 68° (ENE) 03:18:27 437.325
UKube-1 22 Aug 03:18:34 03:21:51 21° 267° (W) 03:25:09 .
NO-84 22 Aug 03:21:54 03:24:25 27° 334° (NNW) 03:26:56 435.350 FM
BUGSAT 1 22 Aug 03:25:05 03:28:23 25° 293° (WNW) 03:31:42 437.445
MOZHAYETS 4 22 Aug 03:45:39 03:50:10 71° 75° (ENE) 03:54:44
Gurwin Techsat 1B 22 Aug 03:48:02 03:53:21 71° 287° (WNW) 03:58:37 435.225
ITAMSAT 1 22 Aug 03:49:38 03:52:25 14° 89° (E) 03:55:11 435.822/435.867
Oscar 19 22 Aug 04:05:36 04:10:16 34° 294° (WNW) 04:14:55 437.125/150
CUBESAT XI-V 22 Aug 04:09:13 04:13:10 28° 66° (ENE) 04:17:09 437.345
BEESAT 22 Aug 04:11:56 04:16:34 53° 260° (W) 04:21:14 436.000
YUBILEINY 22 Aug 04:19:02 04:27:43 73° 266° (W) 04:36:19 435.215
AO-7 22 Aug 04:47:30 04:55:38 54° 102° (ESE) 05:03:41 .
ITUPSAT 1 22 Aug 04:48:04 04:51:58 25° 266° (W) 04:55:54 437.325
AO-85 22 Aug 04:55:50 04:56:22 10° 109° (ESE) 04:56:53 145.980
NO-84 22 Aug 05:01:17 05:02:34 12° 355° (N) 05:03:51 435.350 FM
KKS-1 22 Aug 05:24:48 05:29:15 74° 75° (ENE) 05:33:44 437.445
MOZHAYETS 4 22 Aug 05:25:50 05:27:50 13° 272° (W) 05:29:50
ITAMSAT 1 22 Aug 05:27:16 05:32:28 77° 287° (WNW) 05:37:37 435.822/435.867
Gurwin Techsat 1B 22 Aug 05:30:34 05:32:21 12° 306° (NW) 05:34:07 435.225
CUBESAT XI-V 22 Aug 05:46:11 05:50:25 34° 264° (W) 05:54:43 437.345
BEESAT 3 22 Aug 05:57:08 06:01:08 79° 125° (SE) 06:05:13 437.485
STARS 22 Aug 05:59:51 06:04:14 73° 73° (ENE) 06:08:38 437.465
DOVE 4 22 Aug 06:09:45 06:13:28 25° 93° (E) 06:17:01 437.250
SO-50 22 Aug 06:12:20 06:14:24 13° 29° (NNE) 06:16:29 436.795
BEESAT 2 22 Aug 06:14:07 06:17:51 39° 118° (ESE) 06:21:38 435.950
YUBILEINY 22 Aug 06:18:36 06:22:50 15° 287° (WNW) 06:27:05 435.215
AO-85 22 Aug 06:32:12 06:36:07 77° 306° (NW) 06:40:04 145.980
XW-2C 22 Aug 06:32:29 06:34:15 13° 90° (E) 06:36:02 145.795 - 145.815
NO-84 22 Aug 06:38:54 06:40:53 17° 17° (NNE) 06:42:56 435.350 FM
AO-7 22 Aug 06:40:37 06:48:12 40° 302° (WNW) 06:55:42 .
XW-2F 22 Aug 06:43:00 06:45:25 16° 92° (E) 06:47:50 145.980 - 146.000
STRAND 1 22 Aug 06:50:18 06:54:10 22° 62° (ENE) 06:58:03 437.568
PCSat 22 Aug 06:50:45 06:55:06 24° 41° (NE) 06:59:24 145.827
HO-68 22 Aug 06:59:57 07:00:58 10° 83° (E) 07:02:00 435.675
KKS-1 22 Aug 07:04:39 07:06:19 12° 271° (W) 07:08:01 437.445
KAITUO 1B 22 Aug 07:05:25 07:08:29 23° 94° (E) 07:11:31 145.475/437.950
ITAMSAT 1 22 Aug 07:09:07 07:11:03 12° 305° (NW) 07:13:00 435.822/435.867
LilacSat-2 22 Aug 07:32:07 07:36:00 67° 101° (ESE) 07:39:51 437.200
CUTE 1.7 + AOD 2 22 Aug 07:34:37 07:36:41 13° 89° (E) 07:38:46 437.475
XW-2D 22 Aug 07:34:38 07:38:29 70° 101° (ESE) 07:42:19 145.860 - 145.880
NUDT-PHONESAT 22 Aug 07:35:40 07:39:20 49° 99° (E) 07:43:00 437.300
BEESAT 3 22 Aug 07:36:36 07:39:14 16° 323° (NW) 07:41:52 437.485
STARS 22 Aug 07:39:27 07:41:04 12° 271° (W) 07:42:41 437.465
CUTE-I 22 Aug 07:45:25 07:50:43 63° 102° (ESE) 07:55:59 437.470
XW-2B 22 Aug 07:45:44 07:49:36 90° 280° (W) 07:53:27 145.730 - 145.750
DOVE 4 22 Aug 07:47:07 07:51:15 34° 292° (WNW) 07:55:10 437.250
SO-50 22 Aug 07:51:23 07:55:52 54° 50° (NE) 08:00:23 436.795
BEESAT 2 22 Aug 07:52:18 07:55:42 26° 317° (NW) 07:59:09 435.950
CUBEBUG 2 22 Aug 07:59:34 08:01:27 13° 90° (E) 08:03:21 437.445
XW-2C 22 Aug 08:05:00 08:08:45 52° 287° (WNW) 08:12:29 145.795 - 145.815
AO-85 22 Aug 08:15:23 08:17:12 13° 327° (NNW) 08:19:02 145.980
NO-84 22 Aug 08:15:41 08:18:40 74° 38° (NE) 08:21:51 435.350 FM
XW-2F 22 Aug 08:16:07 08:19:44 40° 288° (WNW) 08:23:20 145.980 - 146.000
XW-2A 22 Aug 08:17:08 08:19:18 16° 93° (E) 08:21:27 145.665 - 145.685
SEEDS 22 Aug 08:18:39 08:22:10 24° 94° (E) 08:25:38 437.485
